This is the latest recevied weather packets stored in our database for station/object KQ4UWH. If no packets are shown the sender has not sent any weather packets the latest 1 day(s).
| Time | Temp. | Humidity | Pressure | Rain* | Wind** | Luminosity | Snow |
|---|---|---|---|---|---|---|---|
| 1778003306 | 25.56° C | 37% | 1239.7 hPa | 0 mm | 1.79 m/s, 211° | 760 W/m² | - |
| 1778003003 | 25.56° C | 39% | 1239.7 hPa | 0 mm | 0.89 m/s, 186° | 776 W/m² | - |
| 1778002699 | 25° C | 40% | 1239.7 hPa | 0 mm | 0.89 m/s, 185° | 761 W/m² | - |
| 1778002395 | 25° C | 39% | 1239.7 hPa | 0 mm | 1.34 m/s, 160° | 766 W/m² | - |
| 1778002092 | 25° C | 41% | 1239.7 hPa | 0 mm | 1.79 m/s, 183° | 769 W/m² | - |
| 1778001790 | 25° C | 40% | 1239.7 hPa | 0 mm | 1.34 m/s, 125° | 771 W/m² | - |
| 1778001485 | 25° C | 40% | 1239.7 hPa | 0 mm | 0.45 m/s, 177° | 764 W/m² | - |
| 1778001182 | 25° C | 41% | 1239.7 hPa | 0 mm | 0.45 m/s, 121° | 758 W/m² | - |
| 1778000878 | 25° C | 41% | 1239.7 hPa | 0 mm | 0.45 m/s, 117° | 759 W/m² | - |
| 1778000575 | 25° C | 40% | 1239.7 hPa | 0 mm | 0.45 m/s, 141° | 760 W/m² | - |
| 1778000275 | 25° C | 41% | 1239.7 hPa | 0 mm | 0 m/s | 758 W/m² | - |
| 1777999971 | 24.44° C | 43% | 1239.7 hPa | 0 mm | 0.45 m/s, 85° | 752 W/m² | - |
| 1777999667 | 24.44° C | 48% | 1239.7 hPa | 0 mm | 0.89 m/s, 123° | 755 W/m² | - |
| 1777999364 | 24.44° C | 41% | 1239.7 hPa | 0 mm | 1.34 m/s, 198° | 749 W/m² | - |
| 1777999063 | 24.44° C | 42% | 1239.7 hPa | 0 mm | 1.34 m/s, 214° | 744 W/m² | - |
| 1777998761 | 25° C | 43% | 1239.7 hPa | 0 mm | 0 m/s | 735 W/m² | - |
| 1777998458 | 23.89° C | 44% | 1239.7 hPa | 0 mm | 0.45 m/s, 131° | 735 W/m² | - |
| 1777998155 | 23.89° C | 42% | 1239.7 hPa | 0 mm | 0 m/s | 294 W/m² | - |
| 1777997852 | 23.89° C | 42% | 1239.7 hPa | 0 mm | 1.79 m/s, 193° | 730 W/m² | - |
| 1777997550 | 23.89° C | 45% | 1239.7 hPa | 0 mm | 1.79 m/s, 168° | 51 W/m² | - |
| 1777997246 | 23.89° C | 46% | 1239.7 hPa | 0 mm | 0.89 m/s, 126° | 50 W/m² | - |
| 1777996944 | 23.89° C | 45% | 1239.7 hPa | 0 mm | 1.34 m/s, 320° | 709 W/m² | - |
| 1777996640 | 23.89° C | 44% | 1239.7 hPa | 0 mm | 0.89 m/s, 79° | 693 W/m² | - |
| 1777996337 | 23.33° C | 45% | 1239.7 hPa | 0 mm | 0.89 m/s, 112° | 688 W/m² | - |
| 1777996033 | 22.78° C | 47% | 1239.7 hPa | 0 mm | 0.45 m/s, 164° | 677 W/m² | - |
* Rain latest hour (hover to see other rain measurements)
** Current wind speed in m/s (hover to see current wind gust speed)